When you browse on this site, cookies collect data to enhance your experience and personalize the content and advertising you see.
Visit our Privacy Policy to learn more. By continuing to use the site, you agree to this use of cookies and data.
  • In Switzerland
  • List of Countries
  • For 7 days
  • Water Temperature
  • Weather Map
  • Weather Widgets
  • user-avatar
    Login

    Hourly Weather Casper

    Today, 11 December, Wednesday

    Time Temperature Precipitation Wind Pressure Humidity
    00:00 -9°C° 0 mm 6 mps 628 mmHg 76%
    01:00 -9°C° 0 mm 6 mps 628 mmHg 76%
    02:00 -9°C° 0 mm 6 mps 628 mmHg 76%
    03:00 -9°C° 0 mm 6 mps 627 mmHg 74%
    04:00 -9°C° 0 mm 6 mps 627 mmHg 72%
    05:00 -8°C° 0 mm 6 mps 627 mmHg 71%
    06:00 -8°C° 0 mm 6 mps 627 mmHg 70%
    07:00 -8°C° 0 mm 6 mps 626 mmHg 69%
    08:00 -6°C° 0 mm 6 mps 626 mmHg 68%
    09:00 -5°C° 0 mm 6 mps 626 mmHg 67%
    10:00 -4°C° 0 mm 7 mps 627 mmHg 67%
    11:00 -3°C° 0 mm 7 mps 627 mmHg 66%
    12:00 -3°C° 0 mm 7 mps 626 mmHg 67%
    13:00 -2°C° 0 mm 7 mps 626 mmHg 68%
    14:00 -2°C° 0 mm 7 mps 625 mmHg 69%
    15:00 -3°C° 0 mm 7 mps 625 mmHg 70%
    16:00 -3°C° 0 mm 7 mps 625 mmHg 71%
    17:00 -4°C° 0 mm 6 mps 626 mmHg 72%
    18:00 -5°C° 0 mm 6 mps 626 mmHg 72%
    19:00 -6°C° 0 mm 6 mps 626 mmHg 72%
    20:00 -7°C° 0 mm 5 mps 625 mmHg 72%
    21:00 -7°C° 0 mm 5 mps 626 mmHg 73%
    22:00 -8°C° 0 mm 5 mps 626 mmHg 74%
    23:00 -8°C° 0 mm 5 mps 626 mmHg 75%

    Tomorrow, 12 December, Thursday

    Time Temperature Precipitation Wind Pressure Humidity
    00:00 -8°C° 0 mm 5 mps 626 mmHg 76%
    01:00 -8°C° 0 mm 5 mps 626 mmHg 78%
    02:00 -10°C° 0 mm 5 mps 626 mmHg 79%
    03:00 -9°C° 0 mm 6 mps 626 mmHg 79%
    04:00 -8°C° 0 mm 6 mps 626 mmHg 78%
    05:00 -8°C° 0 mm 6 mps 626 mmHg 78%
    06:00 -6°C° 0 mm 6 mps 626 mmHg 78%
    07:00 -5°C° 0 mm 6 mps 626 mmHg 78%
    08:00 -4°C° 0 mm 6 mps 626 mmHg 78%
    09:00 -3°C° 0 mm 7 mps 626 mmHg 78%
    10:00 -2°C° 0 mm 7 mps 627 mmHg 77%
    11:00 -1°C° 0 mm 8 mps 627 mmHg 76%
    12:00 -1°C° 0 mm 8 mps 626 mmHg 77%
    13:00 -1°C° 0 mm 7 mps 626 mmHg 77%
    14:00 -1°C° 0 mm 7 mps 625 mmHg 77%
    15:00 -1°C° 0 mm 6 mps 625 mmHg 78%
    16:00 -2°C° 0 mm 6 mps 625 mmHg 79%
    17:00 -1°C° 0 mm 5 mps 625 mmHg 80%
    18:00 -1°C° 0 mm 5 mps 625 mmHg 81%
    19:00 -1°C° 0 mm 5 mps 625 mmHg 81%
    20:00 -2°C° 0 mm 6 mps 625 mmHg 81%
    21:00 -2°C° 0 mm 5 mps 625 mmHg 81%
    22:00 -2°C° 0 mm 5 mps 625 mmHg 81%
    23:00 -4°C° 0 mm 5 mps 625 mmHg 81%

    Day after tomorrow, 13 December, Friday

    Time Temperature Precipitation Wind Pressure Humidity
    00:00 -4°C° 0 mm 5 mps 625 mmHg 80%
    01:00 -3°C° 0 mm 4 mps 625 mmHg 79%
    02:00 -4°C° 0 mm 4 mps 624 mmHg 78%
    03:00 -4°C° 0 mm 4 mps 624 mmHg 78%
    04:00 -4°C° 0 mm 4 mps 624 mmHg 78%
    05:00 -6°C° 0 mm 5 mps 624 mmHg 79%
    06:00 -5°C° 0 mm 4 mps 624 mmHg 79%
    07:00 -7°C° 0 mm 4 mps 624 mmHg 79%
    08:00 -7°C° 0 mm 4 mps 624 mmHg 79%
    09:00 -5°C° 0 mm 4 mps 624 mmHg 78%
    10:00 -4°C° 0 mm 5 mps 624 mmHg 77%
    11:00 -2°C° 0 mm 5 mps 624 mmHg 76%
    12:00 -2°C° 0 mm 6 mps 624 mmHg 77%
    13:00 -2°C° 0 mm 6 mps 623 mmHg 79%
    14:00 -1°C° 0 mm 6 mps 622 mmHg 80%
    15:00 -2°C° 0 mm 6 mps 622 mmHg 81%
    16:00 -2°C° 0 mm 5 mps 622 mmHg 81%
    17:00 -3°C° 0 mm 4 mps 621 mmHg 81%
    18:00 -4°C° 0 mm 3 mps 621 mmHg 85%
    19:00 -4°C° 0 mm 3 mps 621 mmHg 90%
    20:00 -5°C° 0 mm 3 mps 621 mmHg 94%
    21:00 -4°C° 0.3 mm 2 mps 621 mmHg 95%
    22:00 -2°C° 0.3 mm 1 mps 621 mmHg 96%
    23:00 -2°C° 0.3 mm 1 mps 622 mmHg 97%

    14 December, Saturday

    Time Temperature Precipitation Wind Pressure Humidity
    00:00 -3°C° 0.2 mm 1 mps 622 mmHg 96%
    01:00 -3°C° 0.2 mm 1 mps 622 mmHg 96%
    02:00 -3°C° 0.2 mm 1 mps 622 mmHg 96%
    03:00 -6°C° 0.1 mm 2 mps 622 mmHg 95%
    04:00 -8°C° 0.1 mm 3 mps 622 mmHg 94%
    05:00 -8°C° 0.1 mm 3 mps 622 mmHg 93%
    06:00 -9°C° 0 mm 3 mps 622 mmHg 92%
    07:00 -11°C° 0 mm 4 mps 622 mmHg 91%
    08:00 -12°C° 0 mm 4 mps 621 mmHg 90%
    09:00 -10°C° 0 mm 4 mps 622 mmHg 88%
    10:00 -9°C° 0 mm 4 mps 622 mmHg 86%
    11:00 -8°C° 0 mm 4 mps 623 mmHg 83%
    12:00 -8°C° 0 mm 4 mps 622 mmHg 82%
    13:00 -8°C° 0 mm 4 mps 622 mmHg 80%
    14:00 -7°C° 0 mm 4 mps 622 mmHg 78%
    15:00 -9°C° 0 mm 4 mps 622 mmHg 78%
    16:00 -10°C° 0 mm 4 mps 622 mmHg 78%
    17:00 -12°C° 0 mm 4 mps 622 mmHg 77%
    18:00 -12°C° 0 mm 4 mps 622 mmHg 76%
    19:00 -14°C° 0 mm 4 mps 622 mmHg 75%
    20:00 -14°C° 0 mm 4 mps 622 mmHg 73%
    21:00 -14°C° 0 mm 4 mps 622 mmHg 72%
    22:00 -15°C° 0 mm 4 mps 622 mmHg 72%
    23:00 -15°C° 0 mm 4 mps 622 mmHg 71%

    15 December, Sunday

    Time Temperature Precipitation Wind Pressure Humidity
    00:00 -15°C° 0 mm 4 mps 622 mmHg 72%
    01:00 -16°C° 0 mm 4 mps 622 mmHg 74%
    02:00 -16°C° 0 mm 4 mps 622 mmHg 75%
    03:00 -16°C° 0 mm 4 mps 622 mmHg 76%
    04:00 -17°C° 0 mm 4 mps 621 mmHg 76%
    05:00 -17°C° 0 mm 4 mps 621 mmHg 77%
    06:00 -17°C° 0 mm 4 mps 622 mmHg 77%
    07:00 -17°C° 0 mm 4 mps 622 mmHg 77%
    08:00 -17°C° 0 mm 4 mps 622 mmHg 77%
    09:00 -15°C° 0 mm 4 mps 622 mmHg 77%
    10:00 -14°C° 0 mm 4 mps 623 mmHg 77%
    11:00 -12°C° 0 mm 4 mps 623 mmHg 76%
    12:00 -11°C° 0 mm 4 mps 623 mmHg 77%
    13:00 -11°C° 0 mm 4 mps 623 mmHg 77%
    14:00 -10°C° 0 mm 4 mps 622 mmHg 77%
    15:00 -12°C° 0 mm 4 mps 622 mmHg 78%
    16:00 -14°C° 0 mm 4 mps 622 mmHg 79%
    17:00 -15°C° 0 mm 4 mps 622 mmHg 79%
    18:00 -15°C° 0 mm 4 mps 623 mmHg 78%
    19:00 -16°C° 0 mm 4 mps 623 mmHg 78%
    20:00 -15°C° 0 mm 3 mps 623 mmHg 77%
    21:00 -15°C° 0 mm 3 mps 623 mmHg 78%
    22:00 -16°C° 0 mm 3 mps 624 mmHg 79%
    23:00 -16°C° 0 mm 3 mps 624 mmHg 79%

    16 December, Monday

    Time Temperature Precipitation Wind Pressure Humidity
    00:00 -17°C° 0 mm 4 mps 624 mmHg 79%
    01:00 -18°C° 0 mm 4 mps 624 mmHg 79%
    02:00 -18°C° 0 mm 4 mps 625 mmHg 78%
    03:00 -18°C° 0 mm 4 mps 625 mmHg 77%
    04:00 -19°C° 0 mm 5 mps 624 mmHg 76%
    05:00 -20°C° 0 mm 5 mps 624 mmHg 74%
    06:00 -20°C° 0 mm 5 mps 625 mmHg 75%
    07:00 -20°C° 0 mm 5 mps 625 mmHg 76%
    08:00 -21°C° 0 mm 6 mps 625 mmHg 77%
    09:00 -20°C° 0 mm 6 mps 625 mmHg 76%
    10:00 -18°C° 0 mm 6 mps 625 mmHg 74%
    11:00 -16°C° 0 mm 6 mps 625 mmHg 73%
    12:00 -15°C° 0 mm 6 mps 625 mmHg 73%
    13:00 -15°C° 0 mm 6 mps 625 mmHg 73%
    14:00 -14°C° 0 mm 6 mps 625 mmHg 73%
    15:00 -14°C° 0 mm 5 mps 625 mmHg 74%
    16:00 -15°C° 0 mm 5 mps 625 mmHg 75%
    17:00 -17°C° 0 mm 5 mps 625 mmHg 76%
    18:00 -17°C° 0 mm 4 mps 626 mmHg 75%
    19:00 -17°C° 0 mm 4 mps 626 mmHg 75%
    20:00 -17°C° 0 mm 4 mps 626 mmHg 74%
    21:00 -18°C° 0 mm 4 mps 626 mmHg 74%
    22:00 -18°C° 0 mm 4 mps 627 mmHg 75%
    23:00 -18°C° 0 mm 4 mps 627 mmHg 75%
    Show more